Location: ???????
(55.4362°N, 38.1183°E)
Time: 14:34:34
(UTC+00:00)

Helios 1B rocket - Visible Passes

Search period start: 20 October 2021 00:00
Search period end: 30 October 2021 00:00
Orbit: 572 x 583 km, 98.2° (Epoch: 19 October)

Date Brightness Start Highest point End Pass type
(mag) Time Alt. Az. Time Alt. Az. Time Alt. Az.
20 Oct 4.7 01:30:03 10° N 01:30:58 14° NNW 01:30:58 14° NNW visible
20 Oct 5.3 23:58:15 10° NNE 23:58:49 14° NNE 23:58:49 14° NNE visible
21 Oct 4.7 01:34:19 10° NNW 01:35:05 13° NNW 01:35:05 13° NNW visible
22 Oct 5.3 00:02:25 10° NNE 00:02:56 13° NNE 00:02:56 13° NNE visible
22 Oct 4.8 01:38:34 10° NNW 01:39:12 12° NNW 01:39:12 12° NNW visible
23 Oct 5.3 00:06:36 10° NNE 00:07:03 13° NNE 00:07:03 13° NNE visible
23 Oct 4.8 01:42:51 10° NNW 01:43:19 12° NNW 01:43:19 12° NNW visible
24 Oct 5.3 00:10:46 10° NNE 00:11:09 12° NNE 00:11:09 12° NNE visible
24 Oct 4.9 01:47:07 10° NNW 01:47:25 11° NNW 01:47:25 11° NNW visible
25 Oct 5.3 00:14:57 10° NNE 00:15:16 12° NNE 00:15:16 12° NNE visible
25 Oct 4.9 01:51:25 10° NNW 01:51:32 10° NNW 01:51:32 10° NNW visible
26 Oct 5.3 00:19:07 10° NNE 00:19:22 12° NNE 00:19:22 12° NNE visible
27 Oct 5.4 00:23:18 10° NNE 00:23:29 11° N 00:23:29 11° N visible
28 Oct 5.4 00:27:28 10° N 00:27:35 11° N 00:27:35 11° N visible
29 Oct 5.4 00:31:39 10° N 00:31:41 10° N 00:31:41 10° N visible
